| time (UTC) | temp C | wind direction | speed KPH | gust KPH | rain 1hr cm | rain 24hr cm | rain mn cm | humidity % | barometer mb |
| 20260904163825 | 15 | 306 | 3.2 | 4.8 | 0.00 | 2.13 | 0.05 | 92 | 1006.7 |
| 20260904163418 | 14 | 172 | 0.0 | 4.8 | 0.00 | 2.13 | 0.05 | 92 | 1006.7 |
| 20260904163325 | 14 | 172 | 0.0 | 4.8 | 0.00 | 2.13 | 0.05 | 92 | 1006.7 |
| 20260904162825 | 14 | 166 | 0.0 | 4.8 | 0.00 | 2.13 | 0.05 | 92 | 1006.7 |
| 20260904162325 | 14 | 246 | 3.2 | 3.2 | 0.00 | 2.13 | 0.05 | 92 | 1006.7 |
| 20260904161825 | 14 | 124 | 0.0 | 6.4 | 0.00 | 2.13 | 0.05 | 92 | 1006.8 |
| 20260904161326 | 14 | 291 | 3.2 | 6.4 | 0.00 | 2.13 | 0.05 | 92 | 1006.8 |
| 20260904160825 | 14 | 263 | 3.2 | 6.4 | 0.00 | 2.13 | 0.05 | 92 | 1006.7 |
| 20260904160325 | 13 | 289 | 1.6 | 6.4 | 0.00 | 2.13 | 0.05 | 92 | 1006.7 |
| 20260904155325 | 13 | 275 | 0.0 | 4.8 | 0.00 | 2.31 | 0.05 | 92 | 1006.7 |
| 20260904154825 | 13 | 253 | 0.0 | 6.4 | 0.00 | 2.31 | 0.05 | 92 | 1006.6 |
| 20260904154326 | 13 | 229 | 1.6 | 6.4 | 0.00 | 2.31 | 0.05 | 92 | 1006.6 |
| 20260904153825 | 13 | 285 | 1.6 | 6.4 | 0.00 | 2.31 | 0.05 | 92 | 1006.6 |
| 20260904153325 | 13 | 270 | 1.6 | 6.4 | 0.00 | 2.31 | 0.05 | 92 | 1006.6 |
| 20260904152825 | 13 | 240 | 0.0 | 6.4 | 0.00 | 2.31 | 0.05 | 92 | 1006.5 |
| 20260904152325 | 13 | 242 | 0.0 | 6.4 | 0.00 | 2.31 | 0.05 | 92 | 1006.4 |
| 20260904151825 | 13 | 148 | 1.6 | 6.4 | 0.00 | 2.31 | 0.05 | 92 | 1006.3 |
| 20260904151421 | 13 | 246 | 1.6 | 4.8 | 0.00 | 2.31 | 0.05 | 92 | 1006.3 |
| 20260904151326 | 13 | 246 | 1.6 | 4.8 | 0.00 | 2.31 | 0.05 | 92 | 1006.3 |
| 20260904150825 | 13 | 208 | 0.0 | 4.8 | 0.00 | 2.31 | 0.05 | 92 | 1006.2 |
| 20260904150325 | 13 | 186 | 0.0 | 8.0 | 0.00 | 2.31 | 0.05 | 92 | 1006.2 |
| 20260904145325 | 13 | 151 | 0.0 | 8.0 | 0.00 | 2.54 | 0.05 | 92 | 1006.0 |
| 20260904144918 | 13 | 277 | 1.6 | 8.0 | 0.00 | 2.54 | 0.05 | 92 | 1005.9 |
| 20260904144825 | 13 | 277 | 1.6 | 8.0 | 0.00 | 2.54 | 0.05 | 92 | 1005.9 |
| 20260904144326 | 13 | 268 | 0.0 | 6.4 | 0.00 | 2.54 | 0.05 | 92 | 1005.9 |
| 20260904143825 | 12 | 261 | 0.0 | 6.4 | 0.03 | 2.54 | 0.05 | 92 | 1005.8 |
| 20260904143325 | 13 | 236 | 1.6 | 4.8 | 0.03 | 2.54 | 0.05 | 92 | 1005.8 |
| 20260904142825 | 13 | 224 | 1.6 | 4.8 | 0.03 | 2.54 | 0.05 | 92 | 1005.7 |
| 20260904142325 | 12 | 294 | 0.0 | 3.2 | 0.03 | 2.54 | 0.05 | 92 | 1005.8 |
| 20260904141326 | 12 | 271 | 0.0 | 8.0 | 0.03 | 2.54 | 0.05 | 92 | 1005.6 |
| 20260904140825 | 12 | 98 | 3.2 | 8.0 | 0.03 | 2.54 | 0.05 | 92 | 1005.5 |
| 20260904140325 | 13 | 197 | 1.6 | 6.4 | 0.03 | 2.54 | 0.05 | 92 | 1005.4 |
| 20260904135825 | 12 | 236 | 0.0 | 6.4 | 0.03 | 2.74 | 0.05 | 92 | 1005.3 |
| 20260904134825 | 13 | 217 | 0.0 | 4.8 | 0.03 | 2.74 | 0.05 | 92 | 1005.2 |
| 20260904134326 | 12 | 264 | 1.6 | 8.0 | 0.03 | 2.74 | 0.05 | 92 | 1005.2 |
| 20260904133825 | 13 | 261 | 0.0 | 8.0 | 0.00 | 2.74 | 0.05 | 92 | 1005.1 |
| 20260904133325 | 12 | 102 | 3.2 | 8.0 | 0.00 | 2.74 | 0.03 | 92 | 1005.0 |
| 20260904132825 | 12 | 201 | 3.2 | 4.8 | 0.00 | 2.74 | 0.03 | 92 | 1005.1 |
| 20260904132325 | 12 | 198 | 0.0 | 6.4 | 0.00 | 2.74 | 0.03 | 92 | 1005.0 |
| 20260904131825 | 12 | 253 | 0.0 | 6.4 | 0.00 | 2.74 | 0.03 | 92 | 1005.0 |
| 20260904131326 | 12 | 253 | 0.0 | 6.4 | 0.00 | 2.74 | 0.03 | 92 | 1005.0 |
| 20260904130825 | 12 | 298 | 1.6 | 4.8 | 0.00 | 2.74 | 0.03 | 92 | 1004.9 |
| 20260904130325 | 12 | 282 | 0.0 | 6.4 | 0.00 | 2.74 | 0.03 | 92 | 1004.8 |
| 20260904125825 | 12 | 273 | 0.0 | 6.4 | 0.00 | 2.82 | 0.03 | 92 | 1004.9 |
| 20260904125325 | 12 | 249 | 0.0 | 6.4 | 0.00 | 2.82 | 0.03 | 92 | 1004.8 |
| 20260904124825 | 12 | 208 | 1.6 | 4.8 | 0.00 | 2.82 | 0.03 | 92 | 1004.7 |
| 20260904123825 | 12 | 100 | 0.0 | 6.4 | 0.00 | 2.82 | 0.03 | 92 | 1004.7 |
| 20260904123325 | 12 | 236 | 0.0 | 6.4 | 0.00 | 2.82 | 0.03 | 92 | 1004.6 |
| 20260904122825 | 12 | 147 | 0.0 | 6.4 | 0.00 | 2.82 | 0.03 | 92 | 1004.6 |
| 20260904122325 | 12 | 273 | 0.0 | 6.4 | 0.00 | 2.82 | 0.03 | 92 | 1004.6 |
| 20260904121825 | 12 | 215 | 0.0 | 6.4 | 0.00 | 2.82 | 0.03 | 92 | 1004.6 |
| 20260904121326 | 12 | 84 | 0.0 | 3.2 | 0.00 | 2.82 | 0.03 | 92 | 1004.7 |
| 20260904120825 | 12 | 225 | 0.0 | 6.4 | 0.00 | 2.82 | 0.03 | 92 | 1004.7 |
| 20260904120443 | 12 | 140 | 0.0 | 6.4 | 0.00 | 2.82 | 0.03 | 92 | 1004.6 |
| 20260904120325 | 12 | 140 | 0.0 | 6.4 | 0.00 | 2.82 | 0.03 | 92 | 1004.6 |
| 20260904115825 | 12 | 210 | 0.0 | 6.4 | 0.00 | 2.82 | 0.03 | 92 | 1004.6 |
| 20260904115325 | 12 | 105 | 1.6 | 4.8 | 0.00 | 2.82 | 0.03 | 92 | 1004.6 |
| 20260904114825 | 12 | 193 | 0.0 | 4.8 | 0.00 | 2.82 | 0.03 | 92 | 1004.6 |
| 20260904114326 | 12 | 218 | 1.6 | 4.8 | 0.00 | 2.82 | 0.03 | 92 | 1004.6 |
| 20260904113825 | 12 | 249 | 0.0 | 3.2 | 0.00 | 2.82 | 0.03 | 92 | 1004.5 |
| 20260904113325 | 12 | 190 | 0.0 | 3.2 | 0.00 | 2.82 | 0.03 | 92 | 1004.5 |
| 20260904112950 | 12 | 161 | 0.0 | 3.2 | 0.00 | 2.82 | 0.03 | 92 | 1004.5 |
| 20260904112825 | 12 | 161 | 0.0 | 3.2 | 0.00 | 2.82 | 0.03 | 92 | 1004.5 |
| 20260904112325 | 12 | 239 | 0.0 | 1.6 | 0.00 | 2.82 | 0.03 | 92 | 1004.5 |
| 20260904111825 | 12 | 243 | 0.0 | 1.6 | 0.00 | 2.82 | 0.03 | 92 | 1004.4 |
| 20260904111326 | 13 | 214 | 0.0 | 6.4 | 0.00 | 2.82 | 0.03 | 92 | 1004.3 |
| 20260904110825 | 13 | 149 | 0.0 | 6.4 | 0.00 | 2.82 | 0.03 | 92 | 1004.3 |
| 20260904110325 | 13 | 225 | 0.0 | 6.4 | 0.00 | 2.82 | 0.03 | 92 | 1004.2 |
| 20260904105825 | 13 | 280 | 0.0 | 6.4 | 0.00 | 3.15 | 0.03 | 92 | 1004.3 |
| 20260904104825 | 13 | 121 | 0.0 | 6.4 | 0.00 | 3.15 | 0.03 | 92 | 1004.3 |
| 20260904104326 | 13 | 242 | 0.0 | 9.7 | 0.00 | 3.15 | 0.03 | 92 | 1004.2 |
| 20260904103325 | 13 | 99 | 1.6 | 9.7 | 0.00 | 3.15 | 0.03 | 92 | 1004.2 |
| 20260904102825 | 13 | 86 | 1.6 | 8.0 | 0.00 | 3.15 | 0.03 | 92 | 1004.2 |
| 20260904102325 | 13 | 245 | 0.0 | 6.4 | 0.00 | 3.15 | 0.03 | 92 | 1004.2 |
| 20260904101825 | 13 | 225 | 1.6 | 6.4 | 0.00 | 3.15 | 0.03 | 92 | 1004.2 |
| 20260904101326 | 13 | 177 | 3.2 | 4.8 | 0.00 | 3.15 | 0.03 | 92 | 1004.2 |
| 20260904100825 | 13 | 186 | 1.6 | 8.0 | 0.00 | 3.15 | 0.03 | 92 | 1004.2 |
| 20260904100325 | 13 | 186 | 3.2 | 8.0 | 0.00 | 3.15 | 0.03 | 92 | 1004.2 |
| 20260904095825 | 13 | 200 | 1.6 | 8.0 | 0.00 | 3.35 | 0.03 | 92 | 1004.2 |
| 20260904095325 | 13 | 151 | 4.8 | 4.8 | 0.00 | 3.35 | 0.03 | 92 | 1004.2 |
| 20260904094825 | 13 | 175 | 0.0 | 4.8 | 0.00 | 3.35 | 0.03 | 92 | 1004.2 |
| 20260904094326 | 13 | 273 | 1.6 | 4.8 | 0.00 | 3.35 | 0.03 | 92 | 1004.2 |
| 20260904093825 | 13 | 281 | 0.0 | 4.8 | 0.00 | 3.35 | 0.03 | 92 | 1004.2 |
| 20260904093325 | 13 | 5 | 0.0 | 4.8 | 0.00 | 3.35 | 0.03 | 92 | 1004.2 |
| 20260904092825 | 13 | 264 | 0.0 | 3.2 | 0.00 | 3.35 | 0.03 | 92 | 1004.1 |
| 20260904092325 | 13 | 238 | 0.0 | 0.0 | 0.00 | 3.35 | 0.03 | 92 | 1004.1 |
| 20260904091825 | 13 | 53 | 0.0 | 4.8 | 0.00 | 3.35 | 0.03 | 92 | 1004.0 |
| 20260904091326 | 13 | 189 | 0.0 | 4.8 | 0.00 | 3.35 | 0.03 | 92 | 1003.9 |
| 20260904090825 | 13 | 238 | 0.0 | 4.8 | 0.00 | 3.35 | 0.03 | 92 | 1003.9 |
| 20260904090325 | 13 | 239 | 0.0 | 4.8 | 0.00 | 3.35 | 0.03 | 92 | 1003.9 |
| 20260904085825 | 13 | 239 | 0.0 | 4.8 | 0.00 | 3.35 | 0.03 | 92 | 1003.9 |
| 20260904085325 | 13 | 176 | 0.0 | 6.4 | 0.00 | 3.35 | 0.03 | 92 | 1003.9 |
| 20260904084825 | 13 | 215 | 1.6 | 6.4 | 0.00 | 3.35 | 0.03 | 92 | 1003.8 |
| 20260904084326 | 13 | 200 | 0.0 | 6.4 | 0.00 | 3.35 | 0.03 | 92 | 1003.8 |
| 20260904083825 | 13 | 231 | 3.2 | 8.0 | 0.03 | 3.35 | 0.03 | 92 | 1003.8 |
| 20260904083325 | 13 | 196 | 1.6 | 8.0 | 0.03 | 3.35 | 0.03 | 92 | 1003.8 |
| 20260904082825 | 13 | 204 | 0.0 | 8.0 | 0.03 | 3.35 | 0.03 | 92 | 1003.8 |
| 20260904082325 | 13 | 197 | 0.0 | 8.0 | 0.03 | 3.35 | 0.03 | 92 | 1003.8 |
| 20260904081825 | 13 | 298 | 0.0 | 8.0 | 0.03 | 3.35 | 0.03 | 92 | 1003.8 |
| 20260904081326 | 13 | 289 | 0.0 | 8.0 | 0.03 | 3.35 | 0.03 | 91 | 1003.8 |
| 20260904080825 | 13 | 299 | 4.8 | 4.8 | 0.03 | 3.35 | 0.03 | 91 | 1003.7 |
| 20260904080325 | 13 | 264 | 0.0 | 8.0 | 0.03 | 3.35 | 0.03 | 91 | 1003.7 |
| 20260904075825 | 13 | 240 | 0.0 | 8.0 | 0.03 | 3.33 | 0.03 | 91 | 1003.7 |
| 20260904075325 | 13 | 242 | 0.0 | 8.0 | 0.03 | 3.33 | 0.03 | 91 | 1003.7 |
| 20260904074825 | 13 | 154 | 1.6 | 8.0 | 0.03 | 3.33 | 0.03 | 91 | 1003.7 |
| 20260904074326 | 13 | 144 | 0.0 | 8.0 | 0.03 | 3.33 | 0.03 | 91 | 1003.8 |
| 20260904073825 | 13 | 268 | 1.6 | 4.8 | 0.00 | 3.33 | 0.03 | 91 | 1003.7 |
| 20260904073325 | 13 | 229 | 1.6 | 9.7 | 0.00 | 3.33 | 0.00 | 91 | 1003.7 |
| 20260904072825 | 13 | 233 | 1.6 | 9.7 | 0.00 | 3.33 | 0.00 | 91 | 1003.8 |
| 20260904072325 | 13 | 158 | 0.0 | 9.7 | 0.00 | 3.33 | 0.00 | 91 | 1003.7 |
| 20260904071825 | 13 | 275 | 1.6 | 6.4 | 0.00 | 3.33 | 0.00 | 91 | 1003.6 |
| 20260904071326 | 13 | 137 | 0.0 | 6.4 | 0.00 | 3.33 | 0.00 | 91 | 1003.7 |
| 20260904070825 | 13 | 194 | 1.6 | 6.4 | 0.00 | 3.33 | 0.00 | 91 | 1003.7 |
| 20260904070325 | 13 | 240 | 0.0 | 4.8 | 0.00 | 3.33 | 0.00 | 91 | 1003.6 |
| 20260904065826 | 13 | 266 | 0.0 | 6.4 | 0.00 | 3.33 | 0.00 | 91 | 1003.6 |
| 20260904065325 | 13 | 201 | 0.0 | 6.4 | 0.00 | 3.33 | 3.33 | 91 | 1003.6 |
| 20260904064825 | 13 | 182 | 0.0 | 6.4 | 0.00 | 3.33 | 3.33 | 91 | 1003.6 |
| 20260904064326 | 13 | 84 | 1.6 | 6.4 | 0.00 | 3.33 | 3.33 | 91 | 1003.7 |
| 20260904063825 | 13 | 231 | 0.0 | 6.4 | 0.00 | 3.33 | 3.33 | 91 | 1003.7 |
| 20260904063325 | 13 | 250 | 0.0 | 6.4 | 0.00 | 3.33 | 3.33 | 91 | 1003.7 |
| 20260904062825 | 13 | 190 | 0.0 | 6.4 | 0.00 | 3.33 | 3.33 | 91 | 1003.7 |
| 20260904062325 | 13 | 320 | 1.6 | 3.2 | 0.00 | 3.33 | 3.33 | 91 | 1003.8 |
| 20260904061825 | 13 | 221 | 1.6 | 3.2 | 0.00 | 3.33 | 3.33 | 91 | 1003.8 |
| 20260904061326 | 13 | 273 | 0.0 | 4.8 | 0.00 | 3.33 | 3.33 | 91 | 1003.8 |
| 20260904060825 | 13 | 289 | 0.0 | 4.8 | 0.00 | 3.33 | 3.33 | 91 | 1003.9 |
| 20260904060325 | 13 | 275 | 1.6 | 4.8 | 0.00 | 3.33 | 3.33 | 91 | 1004.0 |
| 20260904055825 | 13 | 257 | 0.0 | 3.2 | 0.00 | 3.33 | 3.33 | 91 | 1004.0 |
| 20260904055325 | 13 | 266 | 0.0 | 3.2 | 0.00 | 3.33 | 3.33 | 91 | 1004.1 |
| 20260904054825 | 13 | 301 | 0.0 | 3.2 | 0.18 | 3.33 | 3.33 | 91 | 1004.0 |
| 20260904054326 | 13 | 140 | 0.0 | 3.2 | 0.18 | 3.33 | 3.33 | 91 | 1004.1 |
| 20260904053918 | 13 | 215 | 0.0 | 4.8 | 0.33 | 3.33 | 3.33 | 91 | 1004.2 |
| 20260904053825 | 13 | 215 | 0.0 | 4.8 | 0.33 | 3.33 | 3.33 | 91 | 1004.2 |
| 20260904053325 | 13 | 257 | 1.6 | 4.8 | 0.33 | 3.33 | 3.33 | 91 | 1004.1 |
| 20260904052825 | 13 | 201 | 0.0 | 4.8 | 0.43 | 3.33 | 3.33 | 91 | 1004.1 |
| 20260904052326 | 13 | 82 | 1.6 | 8.0 | 0.43 | 3.33 | 3.33 | 91 | 1004.2 |
| 20260904051825 | 13 | 112 | 0.0 | 8.0 | 0.48 | 3.33 | 3.33 | 91 | 1004.2 |
| 20260904051326 | 13 | 198 | 1.6 | 8.0 | 0.48 | 3.33 | 3.33 | 91 | 1004.2 |
| 20260904050825 | 13 | 323 | 3.2 | 3.2 | 0.48 | 3.33 | 3.33 | 91 | 1004.3 |
| 20260904050325 | 13 | 333 | 0.0 | 3.2 | 0.48 | 3.33 | 3.33 | 91 | 1004.2 |
| 20260904045825 | 13 | 106 | 1.6 | 4.8 | 0.48 | 3.33 | 3.33 | 91 | 1004.3 |
| 20260904045325 | 13 | 137 | 3.2 | 4.8 | 0.48 | 3.33 | 3.33 | 91 | 1004.4 |
| 20260904044825 | 13 | 110 | 0.0 | 4.8 | 0.33 | 3.33 | 3.33 | 91 | 1004.4 |
| 20260904044326 | 13 | 107 | 0.0 | 3.2 | 0.33 | 3.20 | 3.23 | 91 | 1004.3 |
| 20260904043825 | 13 | 112 | 0.0 | 3.2 | 0.18 | 3.10 | 3.10 | 91 | 1004.4 |
| 20260904043326 | 13 | 103 | 0.0 | 3.2 | 0.18 | 3.02 | 3.02 | 91 | 1004.3 |
| 20260904042825 | 13 | 92 | 0.0 | 3.2 | 0.10 | 2.97 | 2.97 | 91 | 1004.3 |
| 20260904042325 | 13 | 137 | 0.0 | 1.6 | 0.10 | 2.92 | 2.92 | 91 | 1004.3 |
| 20260904041825 | 13 | 180 | 0.0 | 1.6 | 0.05 | 2.87 | 2.87 | 91 | 1004.3 |
| 20260904041326 | 13 | 120 | 0.0 | 6.4 | 0.05 | 2.84 | 2.84 | 91 | 1004.2 |
| 20260904040825 | 13 | 74 | 0.0 | 6.4 | 0.08 | 2.84 | 2.84 | 91 | 1004.2 |
| 20260904040325 | 13 | 163 | 0.0 | 6.4 | 0.08 | 2.84 | 2.84 | 91 | 1004.2 |
| 20260904035826 | 14 | 124 | 0.0 | 4.8 | 0.13 | 2.84 | 2.84 | 91 | 1004.1 |
| 20260904035325 | 14 | 236 | 0.0 | 6.4 | 0.13 | 2.84 | 2.84 | 91 | 1004.1 |
| 20260904034825 | 14 | 204 | 0.0 | 6.4 | 0.18 | 2.82 | 2.82 | 91 | 1004.2 |
| 20260904033825 | 14 | 103 | 3.2 | 4.8 | 0.18 | 2.82 | 2.82 | 91 | 1004.0 |
| 20260904033325 | 14 | 84 | 0.0 | 4.8 | 0.18 | 2.82 | 2.82 | 91 | 1004.0 |
| 20260904032825 | 14 | 152 | 1.6 | 4.8 | 0.18 | 2.82 | 2.82 | 91 | 1003.9 |
| 20260904032325 | 14 | 88 | 0.0 | 4.8 | 0.18 | 2.82 | 2.82 | 91 | 1003.8 |
| 20260904031825 | 14 | 176 | 0.0 | 8.0 | 0.23 | 2.79 | 2.79 | 90 | 1003.9 |
| 20260904031326 | 14 | 93 | 0.0 | 8.0 | 0.23 | 2.79 | 2.79 | 90 | 1003.9 |
| 20260904030825 | 14 | 85 | 0.0 | 8.0 | 0.20 | 2.79 | 2.79 | 90 | 1003.8 |
| 20260904030325 | 14 | 155 | 3.2 | 6.4 | 0.20 | 2.77 | 2.77 | 90 | 1003.8 |
| 20260904025825 | 14 | 86 | 1.6 | 6.4 | 0.15 | 2.74 | 2.74 | 90 | 1003.8 |
| 20260904025325 | 14 | 68 | 0.0 | 9.7 | 0.15 | 2.72 | 2.74 | 90 | 1003.9 |
| 20260904024825 | 14 | 95 | 1.6 | 9.7 | 0.08 | 2.67 | 2.67 | 90 | 1003.9 |
| 20260904024326 | 14 | 149 | 0.0 | 9.7 | 0.08 | 2.64 | 2.64 | 90 | 1003.8 |
| 20260904023825 | 14 | 110 | 3.2 | 4.8 | 0.08 | 2.64 | 2.64 | 90 | 1003.8 |
| 20260904023325 | 15 | 102 | 0.0 | 14.5 | 0.08 | 2.64 | 2.64 | 90 | 1003.8 |
| 20260904022825 | 15 | 88 | 3.2 | 14.5 | 0.05 | 2.64 | 2.64 | 90 | 1003.8 |
| 20260904022325 | 15 | 161 | 3.2 | 14.5 | 0.05 | 2.64 | 2.64 | 90 | 1003.8 |
| 20260904021825 | 15 | 161 | 6.4 | 12.9 | 0.00 | 2.59 | 2.62 | 90 | 1003.9 |
| 20260904021326 | 15 | 197 | 3.2 | 9.7 | 0.00 | 2.57 | 2.59 | 90 | 1003.9 |
| 20260904020825 | 15 | 85 | 3.2 | 6.4 | 0.00 | 2.57 | 2.57 | 90 | 1003.8 |
| 20260904020325 | 15 | 113 | 3.2 | 6.4 | 0.00 | 2.57 | 2.57 | 90 | 1003.8 |
| 20260904015825 | 15 | 85 | 1.6 | 6.4 | 0.00 | 2.57 | 2.57 | 90 | 1003.7 |
| 20260904015325 | 15 | 128 | 1.6 | 8.0 | 0.00 | 2.57 | 2.57 | 90 | 1003.8 |
| 20260904014825 | 15 | 92 | 3.2 | 8.0 | 0.03 | 2.57 | 2.57 | 90 | 1003.7 |
| 20260904014326 | 15 | 79 | 3.2 | 8.0 | 0.03 | 2.57 | 2.57 | 90 | 1003.7 |
| 20260904013825 | 15 | 133 | 3.2 | 6.4 | 0.03 | 2.57 | 2.57 | 90 | 1003.8 |
| 20260904013325 | 15 | 78 | 3.2 | 12.9 | 0.03 | 2.57 | 2.57 | 90 | 1003.8 |
| 20260904012825 | 15 | 137 | 1.6 | 12.9 | 0.03 | 2.57 | 2.57 | 90 | 1003.7 |
| 20260904012325 | 15 | 179 | 3.2 | 12.9 | 0.03 | 2.57 | 2.57 | 90 | 1003.8 |
| 20260904011825 | 15 | 148 | 4.8 | 9.7 | 0.03 | 2.57 | 2.57 | 90 | 1003.8 |
| 20260904011326 | 15 | 138 | 3.2 | 9.7 | 0.03 | 2.57 | 2.57 | 90 | 1003.8 |
| 20260904010825 | 15 | 172 | 6.4 | 9.7 | 0.03 | 2.57 | 2.57 | 90 | 1003.8 |
| 20260904010325 | 15 | 163 | 4.8 | 16.1 | 0.03 | 2.57 | 2.57 | 90 | 1003.8 |
| 20260904005825 | 15 | 149 | 3.2 | 16.1 | 0.03 | 2.57 | 2.57 | 90 | 1003.8 |
| 20260904005325 | 15 | 226 | 3.2 | 16.1 | 0.03 | 2.57 | 2.57 | 90 | 1003.8 |
| 20260904004825 | 15 | 99 | 6.4 | 12.9 | 0.00 | 2.57 | 2.57 | 90 | 1003.8 |
| 20260904004326 | 15 | 170 | 3.2 | 19.3 | 0.00 | 2.54 | 2.54 | 90 | 1003.8 |
| 20260904003825 | 15 | 163 | 4.8 | 19.3 | 0.05 | 2.54 | 2.54 | 90 | 1003.8 |
| 20260904003325 | 15 | 163 | 4.8 | 19.3 | 0.05 | 2.54 | 2.54 | 90 | 1003.9 |
| 20260904002825 | 15 | 180 | 8.0 | 16.1 | 0.10 | 2.54 | 2.54 | 90 | 1003.9 |
| 20260904002325 | 15 | 93 | 3.2 | 16.1 | 0.10 | 2.54 | 2.54 | 90 | 1003.9 |
| 20260904001825 | 15 | 197 | 6.4 | 16.1 | 0.13 | 2.54 | 2.54 | 90 | 1003.8 |
| 20260904001326 | 15 | 113 | 6.4 | 17.7 | 0.13 | 2.54 | 2.54 | 90 | 1003.8 |
| 20260904000825 | 15 | 75 | 1.6 | 17.7 | 0.15 | 2.54 | 2.54 | 90 | 1003.8 |
| 20260904000325 | 15 | 182 | 6.4 | 17.7 | 0.15 | 2.54 | 2.54 | 90 | 1003.8 |
| 20260903235325 | 15 | 170 | 3.2 | 9.7 | 0.20 | 2.54 | 2.54 | 90 | 1003.9 |
| 20260903234825 | 15 | 182 | 3.2 | 16.1 | 0.20 | 2.54 | 2.54 | 90 | 1003.9 |
| 20260903234326 | 15 | 221 | 4.8 | 16.1 | 0.20 | 2.54 | 2.54 | 90 | 1003.8 |
| 20260903233325 | 15 | 114 | 4.8 | 11.3 | 0.18 | 2.49 | 2.49 | 90 | 1003.9 |
| 20260903232825 | 15 | 71 | 6.4 | 16.1 | 0.13 | 2.49 | 2.49 | 90 | 1003.9 |
| 20260903232325 | 15 | 106 | 4.8 | 16.1 | 0.13 | 2.46 | 2.46 | 90 | 1004.0 |
| 20260903231825 | 15 | 119 | 3.2 | 16.1 | 0.15 | 2.44 | 2.44 | 90 | 1004.1 |
| 20260903231326 | 15 | 187 | 11.3 | 12.9 | 0.15 | 2.41 | 2.44 | 90 | 1004.1 |
| 20260903230825 | 15 | 154 | 6.4 | 12.9 | 0.15 | 2.41 | 2.41 | 90 | 1004.1 |
| 20260903230325 | 15 | 163 | 4.8 | 12.9 | 0.15 | 2.39 | 2.39 | 90 | 1004.2 |
| 20260903230035 | 15 | 170 | 1.6 | 16.1 | 0.13 | 2.36 | 2.39 | 90 | 1004.2 |
| 20260903225825 | 15 | 170 | 1.6 | 16.1 | 0.13 | 2.36 | 2.39 | 90 | 1004.2 |
| 20260903225325 | 15 | 100 | 1.6 | 16.1 | 0.13 | 2.36 | 2.36 | 90 | 1004.2 |
| 20260903224825 | 15 | 173 | 6.4 | 16.1 | 0.13 | 2.34 | 2.34 | 90 | 1004.2 |
| 20260903224326 | 15 | 135 | 3.2 | 11.3 | 0.13 | 2.34 | 2.34 | 90 | 1004.3 |
| 20260903223825 | 15 | 175 | 3.2 | 11.3 | 0.10 | 2.34 | 2.34 | 90 | 1004.2 |
| 20260903223325 | 15 | 107 | 4.8 | 11.3 | 0.10 | 2.31 | 2.34 | 90 | 1004.2 |
| 20260903222825 | 15 | 166 | 1.6 | 11.3 | 0.13 | 2.31 | 2.31 | 90 | 1004.2 |
| 20260903222325 | 15 | 82 | 4.8 | 11.3 | 0.13 | 2.31 | 2.31 | 90 | 1004.2 |
| 20260903221825 | 15 | 170 | 4.8 | 19.3 | 0.38 | 2.29 | 2.29 | 89 | 1004.3 |
| 20260903221326 | 15 | 102 | 3.2 | 19.3 | 0.38 | 2.26 | 2.26 | 89 | 1004.3 |
| 20260903220825 | 15 | 200 | 6.4 | 19.3 | 0.43 | 2.26 | 2.26 | 89 | 1004.2 |
| 20260903220325 | 15 | 176 | 8.0 | 16.1 | 0.43 | 2.24 | 2.24 | 89 | 1004.3 |
| 20260903215825 | 15 | 124 | 12.9 | 16.1 | 0.41 | 2.24 | 2.24 | 89 | 1004.2 |
| 20260903215325 | 15 | 138 | 4.8 | 16.1 | 0.41 | 2.21 | 2.21 | 89 | 1004.2 |
| 20260903214825 | 15 | 113 | 8.0 | 12.9 | 0.43 | 2.21 | 2.21 | 89 | 1004.2 |
| 20260903213825 | 15 | 113 | 3.2 | 9.7 | 0.43 | 2.21 | 2.21 | 89 | 1004.3 |
| 20260903213325 | 14 | 194 | 1.6 | 9.7 | 0.43 | 2.21 | 2.21 | 89 | 1004.2 |
| 20260903212825 | 15 | 74 | 3.2 | 9.7 | 0.41 | 2.21 | 2.21 | 88 | 1004.3 |
| 20260903212325 | 15 | 109 | 6.4 | 17.7 | 0.41 | 2.18 | 2.18 | 88 | 1004.4 |
| 20260903211825 | 15 | 186 | 6.4 | 17.7 | 0.10 | 2.08 | 2.11 | 88 | 1004.6 |
| 20260903211326 | 15 | 158 | 4.8 | 17.7 | 0.10 | 1.91 | 1.91 | 87 | 1004.7 |
| 20260903210825 | 15 | 105 | 4.8 | 17.7 | 0.03 | 1.83 | 1.83 | 87 | 1004.6 |
| 20260903205825 | 15 | 208 | 9.7 | 17.7 | 0.03 | 1.83 | 1.80 | 87 | 1004.4 |
| 20260903205325 | 15 | 175 | 6.4 | 12.9 | 0.03 | 1.83 | 1.80 | 88 | 1004.4 |
| 20260903204825 | 15 | 163 | 6.4 | 27.4 | 0.00 | 1.83 | 1.80 | 87 | 1004.4 |
| 20260903204327 | 15 | 197 | 8.0 | 27.4 | 0.00 | 1.83 | 1.78 | 87 | 1004.4 |
| 20260903203825 | 16 | 179 | 9.7 | 27.4 | 0.00 | 1.83 | 1.78 | 87 | 1004.4 |
| 20260903203325 | 16 | 197 | 11.3 | 25.7 | 0.00 | 1.83 | 1.78 | 87 | 1004.3 |
| 20260903202825 | 16 | 165 | 9.7 | 14.5 | 0.00 | 1.83 | 1.78 | 89 | 1004.2 |
| 20260903202325 | 16 | 123 | 3.2 | 25.7 | 0.00 | 1.83 | 1.78 | 89 | 1004.2 |
| 20260903201825 | 16 | 163 | 4.8 | 25.7 | 0.03 | 1.83 | 1.78 | 90 | 1004.3 |
| 20260903201326 | 16 | 173 | 4.8 | 25.7 | 0.03 | 1.83 | 1.78 | 90 | 1004.3 |
| 20260903200825 | 16 | 175 | 4.8 | 16.1 | 0.05 | 1.83 | 1.78 | 90 | 1004.4 |
| 20260903200325 | 16 | 72 | 3.2 | 14.5 | 0.05 | 1.83 | 1.78 | 91 | 1004.2 |
| 20260903195825 | 15 | 210 | 6.4 | 9.7 | 0.05 | 1.88 | 1.78 | 91 | 1004.3 |
| 20260903195325 | 15 | 120 | 3.2 | 9.7 | 0.05 | 1.88 | 1.78 | 91 | 1004.4 |
| 20260903194826 | 15 | 182 | 4.8 | 6.4 | 0.05 | 1.88 | 1.78 | 91 | 1004.4 |
| 20260903194326 | 15 | 133 | 1.6 | 12.9 | 0.05 | 1.88 | 1.78 | 91 | 1004.5 |
| 20260903193825 | 15 | 168 | 1.6 | 12.9 | 0.05 | 1.88 | 1.78 | 91 | 1004.6 |
| 20260903193325 | 15 | 137 | 4.8 | 12.9 | 0.05 | 1.88 | 1.78 | 91 | 1004.7 |
| 20260903192825 | 14 | 145 | 6.4 | 12.9 | 0.10 | 1.88 | 1.78 | 91 | 1004.8 |
| 20260903192325 | 14 | 127 | 3.2 | 12.9 | 0.10 | 1.88 | 1.78 | 90 | 1004.8 |
| 20260903191825 | 14 | 184 | 3.2 | 12.9 | 0.10 | 1.88 | 1.75 | 90 | 1004.8 |
| 20260903191326 | 14 | 158 | 3.2 | 11.3 | 0.10 | 1.88 | 1.75 | 90 | 1004.8 |
| 20260903190825 | 14 | 162 | 4.8 | 14.5 | 0.10 | 1.88 | 1.75 | 91 | 1004.8 |
| 20260903190325 | 14 | 163 | 3.2 | 14.5 | 0.10 | 1.88 | 1.73 | 91 | 1004.8 |
| 20260903185825 | 14 | 198 | 6.4 | 14.5 | 0.20 | 2.13 | 1.73 | 90 | 1004.8 |
| 20260903185325 | 14 | 205 | 6.4 | 12.9 | 0.20 | 2.13 | 1.73 | 90 | 1004.9 |
| 20260903184825 | 14 | 165 | 3.2 | 12.9 | 0.20 | 2.13 | 1.73 | 90 | 1004.9 |
| 20260903184326 | 14 | 245 | 6.4 | 12.9 | 0.20 | 2.13 | 1.73 | 90 | 1004.8 |
| 20260903183325 | 14 | 162 | 4.8 | 14.5 | 0.20 | 2.13 | 1.73 | 91 | 1004.9 |
| 20260903182825 | 14 | 196 | 1.6 | 14.5 | 0.18 | 2.13 | 1.70 | 90 | 1004.9 |
| 20260903182325 | 14 | 191 | 4.8 | 14.5 | 0.18 | 2.13 | 1.68 | 90 | 1004.9 |
| 20260903181825 | 14 | 149 | 4.8 | 8.0 | 0.18 | 2.13 | 1.68 | 90 | 1004.9 |
| 20260903181326 | 14 | 154 | 1.6 | 14.5 | 0.18 | 2.13 | 1.65 | 90 | 1004.9 |
| 20260903180825 | 14 | 175 | 4.8 | 14.5 | 0.15 | 2.13 | 1.65 | 90 | 1004.9 |
| 20260903180325 | 14 | 70 | 6.4 | 14.5 | 0.15 | 2.13 | 1.65 | 90 | 1004.9 |
| 20260903175825 | 14 | 198 | 4.8 | 16.1 | 0.10 | 2.13 | 1.60 | 90 | 1004.9 |
| 20260903175325 | 14 | 84 | 3.2 | 16.1 | 0.10 | 2.13 | 1.55 | 90 | 1004.9 |
| 20260903174825 | 14 | 149 | 8.0 | 16.1 | 0.18 | 2.13 | 1.52 | 90 | 1004.9 |
| 20260903174326 | 14 | 163 | 1.6 | 22.5 | 0.18 | 2.13 | 1.52 | 90 | 1004.9 |
| 20260903173826 | 14 | 47 | 6.4 | 22.5 | 0.28 | 2.13 | 1.52 | 90 | 1004.8 |
| 20260903173325 | 14 | 142 | 9.7 | 22.5 | 0.28 | 2.13 | 1.52 | 90 | 1004.9 |
| 20260903172825 | 14 | 182 | 8.0 | 20.9 | 0.25 | 2.13 | 1.50 | 90 | 1004.8 |
| 20260903172326 | 14 | 198 | 6.4 | 25.7 | 0.25 | 2.13 | 1.50 | 90 | 1004.8 |
| 20260903171825 | 14 | 165 | 12.9 | 25.7 | 0.23 | 2.13 | 1.47 | 90 | 1004.6 |
| 20260903171326 | 15 | 182 | 9.7 | 25.7 | 0.23 | 2.13 | 1.47 | 90 | 1004.6 |
| 20260903170825 | 14 | 193 | 11.3 | 24.1 | 0.23 | 2.13 | 1.47 | 91 | 1004.6 |
| 20260903170325 | 14 | 217 | 9.7 | 35.4 | 0.23 | 2.13 | 1.47 | 91 | 1004.7 |
| 20260903165825 | 14 | 191 | 14.5 | 35.4 | 0.18 | 2.11 | 1.47 | 90 | 1004.7 |
| 20260903165325 | 14 | 207 | 14.5 | 35.4 | 0.18 | 2.11 | 1.45 | 90 | 1004.7 |
| 20260903164825 | 14 | 197 | 14.5 | 27.4 | 0.10 | 2.11 | 1.42 | 90 | 1004.7 |
| 20260903164326 | 15 | 190 | 12.9 | 33.8 | 0.10 | 2.11 | 1.37 | 90 | 1004.7 |